TELSTAR 18V (APSTAR 5C) (43611 NORAD) Tracking and Keplerian Element Data

This shows tracking and keplerian element data for the satellite.

Feedback or suggestion? Click here.




ElementValue
Catalog43611
NameTELSTAR 18V (APSTAR 5C)
Epoch Orbit391
Epoch Day262.05396715
Epoch Year2019
RAAN184.1879
Inclination0.0158
Eccentricity0.0002025
Argument of Perigee20.7559
Mean Anonmoly310.1566
Mean Motion1.00261963
Decay Rate-2.98E-06
L11 43611U 18069A 19262.05396715 -.00000298 00000-0 00000+0 0 9994
L22 43611 0.0158 184.1879 0002025 20.7559 310.1566 1.00261963 3919

Live tracking and technical data element details for TELSTAR 18V (APSTAR 5C) (NORAD 43611). TELSTAR 18V (APSTAR 5C) can be tracked NOW for your location showing map with azimuth and elevation plus other details from your city location.

Track the satellite on the map from your city or location and see movement details for azimuth, elevation, latitude, longitude, range, height, and movement on the map or in text.







IsCatalogInMostPopularTable: catalog: 43611, numindb: 306
Update: records affected: 1



GetName: 43611 TELSTAR 18V (APSTAR 5C)

Hit Count: updated at: Thu, 19 Sep 2019 16:43:48 GMT